Regional Weather Roundup
Issued by NWS

Home | Current Version | Previous Version | Text Only | Print | Product List | Glossary On
Versions: 1 2 3 4 5 6 7 8 9 10 11 12 13 14 15 16 17 18 19 20 21 22 23 24 25 26 27 28 29 30 31 32 33 34 35 36 37 38 39 40 41 42 43 44 45 46 47 48 49 50
000
ASUS45 KBOI 301610
RWRID
WEATHER ROUNDUP FOR IDAHO
NATIONAL WEATHER SERVICE BOISE ID
1000 AM MDT SAT AUG 30 2014

NOTE: "FAIR" INDICATES FEW OR NO CLOUDS BELOW 12000 FEET
WITH NO SIGNIFICANT WEATHER AND/OR OBSTRUCTIONS TO VISIBILITY

IDZ012-014-301700-
SOUTHWEST IDAHO


CITY           SKY/WX    TMP DP  RH WIND       PRES   REMARKS
BOISE          PTSUNNY   66  43  43 NW9       29.92S
CALDWELL       PTSUNNY   66  39  37 NW16      29.93S
MOUNTAIN HOME  CLOUDY    68  41  37 N18       29.92
$$

IDZ016-017-301700-
SOUTHCENTRAL IDAHO


CITY           SKY/WX    TMP DP  RH WIND       PRES   REMARKS
BURLEY         MOSUNNY   66  45  46 W15G24    29.94S
JEROME         CLOUDY    64  45  49 SW12      29.94S
TWIN FALLS     PTSUNNY   70  44  39 SW14      29.96R
$$

IDZ019>023-301700-
SOUTHEAST IDAHO


CITY           SKY/WX    TMP DP  RH WIND       PRES   REMARKS
IDAHO FALLS    MOSUNNY   65  48  54 SW14      29.91S
POCATELLO      SUNNY     66  48  52 SW24G30   29.94R
REXBURG        PTSUNNY   68  44  42 S9        29.90F
$$

IDZ006-010-011-018-031-032-301700-
CENTRAL IDAHO MOUNTAINS


CITY           SKY/WX    TMP DP  RH WIND       PRES   REMARKS
MCCALL         PTSUNNY   58  40  51 SW3       29.95S
HAILEY         CLOUDY    59  50  72 W7        29.98R
STANLEY          N/A     52  48  86 S9        30.03F
SALMON         CLOUDY    59  50  72 CALM      29.91S
CHALLIS        CLOUDY    57  53  86 N5        29.95R
$$

IDZ002-004-006-007-026-301700-
NORTHERN IDAHO


CITY           SKY/WX    TMP DP  RH WIND       PRES   REMARKS
LEWISTON       MOSUNNY   70  46  42 CALM      29.90S
LOWELL           N/A     62  54  74 N3        29.92S
COEUR D`ALENE  SUNNY     61  45  55 S6        29.89S
MULLAN PASS    PTSUNNY   48  39  71 CALM      29.97S
$$


USA.gov is the U.S. government's official web portal to all federal, state and local government web resources and services.